Regional Weather Roundup
Issued by NWS

Home | Current Version | Previous Version | Graphics & Text | Print | Product List | Glossary On
Versions: 1 2 3 4 5 6 7 8 9 10 11 12 13 14 15 16 17 18 19 20 21 22 23 24 25 26 27 28 29 30 31 32 33 34 35 36 37 38 39 40 41 42 43 44 45 46 47 48 49 50
000
ASUS43 KBIS 020820
RWRND

NORTH DAKOTA REGIONAL WEATHER ROUNDUP
NATIONAL WEATHER SERVICE BISMARCK ND
200 AM CST MON MAR 02 2015

NOTE: "FAIR" INDICATES FEW OR NO CLOUDS BELOW 12,000 FEET WITH NO
SIGNIFICANT WEATHER AND/OR OBSTRUCTIONS TO VISIBILITY.


NDZ001>003-009>011-017-020900-
NORTHWEST NORTH DAKOTA

CITY           SKY/WX    TMP DP  RH WIND       PRES   REMARKS
WILLISTON      PTCLDY     9   3  77 S6        30.19F WCI  -1
MINOT          MOCLDY     8   1  73 SW8       30.25F WCI  -4
MINOT AFB      MOCLDY     6   2  83 SW8       30.25F WCI  -7
$$

NDZ018>021-031>035-040>046-020900-
SOUTHWEST NORTH DAKOTA

CITY           SKY/WX    TMP DP  RH WIND       PRES   REMARKS
BISMARCK       CLEAR      3   0  87 E3        30.34F
DICKINSON      PTCLDY     4  -1  80 S7        30.18F WCI  -8
GARRISON         N/A      2  -1  88 S3        30.27F
HETTINGER ARPT CLEAR      9   3  77 SE9       30.23F WCI  -4
$$

NDZ004>008-012>016-024-026-027-054-020900-
NORTHEAST NORTH DAKOTA

CITY           SKY/WX    TMP DP  RH WIND       PRES   REMARKS
GRAND FORKS    PTCLDY     3  -2  79 CALM      30.36F
GRND FRKS AFB  PTCLDY     6   1  78 W5        30.35F WCI  -3
DEVILS LAKE    MOCLDY     1  -2  85 CALM      30.30F
$$

NDZ022-023-025-028>030-036>039-047>053-020900-
SOUTHEAST NORTH DAKOTA

CITY           SKY/WX    TMP DP  RH WIND       PRES   REMARKS
FARGO          PTCLDY     2  -3  80 SW7       30.39F WCI -11
JAMESTOWN      PTCLDY     3  -2  79 W6        30.33F WCI  -8
$$



USA.gov is the U.S. government's official web portal to all federal, state and local government web resources and services.